Weather History for Meadville, PA

Change the Weather History Date:

Sunday, April 28, 2013

  Actual Average Record
Temperature  
Mean Temperature 56 °F -  
Max Temperature 60 °F 62 °F 89 °F (1990)
Min Temperature 51 °F 35 °F 22 °F (1968)
Degree Days  
Heating Degree Days 10    
Growing Degree Days 6 (Base 50)    
Moisture  
Dew Point 46 °F    
Average Humidity 78    
Maximum Humidity 89    
Minimum Humidity 39    
Precipitation  
Precipitation 0.39 in - - ()
Sea Level Pressure  
Sea Level Pressure 30.02 in    
Wind  
Wind Speed 5 mph (SE)    
Max Wind Speed 10 mph    
Max Gust Speed 16 mph    
Visibility 5 miles    
Events Rain    
Averages and records for this station are not official NWS values.
T = Trace of Precipitation, MM = Missing Value Source: NWS Daily Summary

Daily Weather History Graph

Daily Weather History Graph

Search for Another Location

Airport:

Trip Planner

Search our weather history database for the weather conditions in past years. The results will help you decide how hot, cold, wet, or windy it might be!

Date:

Astronomy

Apr. 28, 2013 Rise Set
Actual Time 6:21 AM EDT 8:15 PM EDT
Civil Twilight 5:51 AM EDT 8:45 PM EDT
Nautical Twilight 5:14 AM EDT 9:22 PM EDT
Astronomical Twilight 4:35 AM EDT 10:02 PM EDT
Moon 11:46 PM EDT (4/28) 8:34 AM EDT (4/28)
Length of Visible Light 14h 54m
Length of Day
13h 54m
Waning Gibbous, 89% of the Moon is Illuminated
Apr 28
Waning Gibbous
May 2
Last Quarter
May 9
New
May 18
First Quarter
May 25
Full

Hourly Weather History & Observations

Time (EDT) Temp. Dew Point Humidity Pressure Visibility Wind Dir Wind Speed Gust Speed Precip Events Conditions
12:53 AM 59.0 °F 34.0 °F 39% 30.15 in 10.0 mi Variable 4.6 mph - N/A   Clear
1:53 AM 57.0 °F 35.1 °F 44% 30.14 in 10.0 mi Variable 4.6 mph - N/A   Clear
2:53 AM 55.9 °F 36.0 °F 47% 30.12 in 10.0 mi Variable 3.5 mph - N/A   Clear
3:53 AM 55.0 °F 37.0 °F 51% 30.12 in 10.0 mi Calm Calm - N/A   Clear
4:53 AM 54.0 °F 37.0 °F 53% 30.11 in 10.0 mi Calm Calm - N/A   Clear
5:53 AM 53.1 °F 37.0 °F 55% 30.11 in 10.0 mi Calm Calm - N/A   Clear
6:53 AM 53.1 °F 37.0 °F 55% 30.10 in 10.0 mi ESE 5.8 mph - N/A   Clear
7:53 AM 55.0 °F 37.9 °F 53% 30.09 in 10.0 mi Variable 5.8 mph - N/A   Clear
9:53 AM 59.0 °F 39.9 °F 49% 30.07 in 10.0 mi Variable 5.8 mph - N/A   Mostly Cloudy
10:53 AM 60.1 °F 41.0 °F 49% 30.06 in 10.0 mi SSE 8.1 mph - N/A   Overcast
11:53 AM 57.0 °F 45.0 °F 64% 30.06 in 5.0 mi SE 10.4 mph - 0.00 in Rain Light Rain
12:43 PM 53.6 °F 48.2 °F 82% 30.06 in 2.5 mi Variable 6.9 mph - 0.02 in Rain Light Rain
12:53 PM 53.1 °F 48.9 °F 86% 30.06 in 2.5 mi SE 8.1 mph - 0.03 in Rain Light Rain
1:04 PM 53.6 °F 48.2 °F 82% 30.05 in 3.0 mi Variable 5.8 mph - 0.00 in Rain Light Rain
1:16 PM 53.6 °F 48.2 °F 82% 30.04 in 3.0 mi Variable 6.9 mph - 0.01 in Rain Light Rain
1:36 PM 53.6 °F 48.2 °F 82% 30.03 in 3.0 mi Variable 5.8 mph - 0.01 in Rain Light Rain
1:53 PM 53.1 °F 50.0 °F 89% 30.04 in 3.0 mi Variable 4.6 mph - 0.02 in Rain Light Rain
2:06 PM 53.6 °F 50.0 °F 88% 30.03 in 2.5 mi SE 9.2 mph - 0.01 in Rain Light Rain
2:20 PM 53.6 °F 50.0 °F 88% 30.02 in 1.8 mi Variable 5.8 mph - 0.03 in Rain Light Rain
2:53 PM 53.1 °F 50.0 °F 89% 30.01 in 1.2 mi Variable 4.6 mph - 0.06 in Rain Light Rain
3:29 PM 53.6 °F 50.0 °F 88% 29.99 in 2.0 mi Variable 3.5 mph - 0.04 in Rain Light Rain
3:41 PM 53.6 °F 50.0 °F 88% 29.99 in 1.5 mi Variable 5.8 mph - 0.05 in Rain Light Rain
3:53 PM 53.1 °F 50.0 °F 89% 29.99 in 1.2 mi SE 5.8 mph - 0.07 in Rain Light Rain
4:22 PM 53.6 °F 50.0 °F 88% 29.98 in 2.5 mi Variable 4.6 mph - 0.04 in Rain Light Rain
4:53 PM 53.1 °F 50.0 °F 89% 29.97 in 2.0 mi Variable 4.6 mph - 0.04 in Rain Light Rain
5:01 PM 53.6 °F 50.0 °F 88% 29.97 in 1.2 mi Variable 4.6 mph - 0.01 in Rain Light Rain
5:51 PM 53.6 °F 50.0 °F 88% 29.96 in 3.0 mi SE 9.2 mph 16.1 mph 0.02 in Rain Light Rain
5:53 PM 53.1 °F 50.0 °F 89% 29.96 in 3.0 mi Variable 5.8 mph 16.1 mph 0.02 in Rain Light Rain
6:53 PM 53.1 °F 50.0 °F 89% 29.96 in 7.0 mi SE 5.8 mph - 0.00 in   Overcast
7:32 PM 53.6 °F 48.2 °F 82% 29.94 in 9.0 mi Variable 6.9 mph - N/A   Overcast
7:53 PM 52.0 °F 48.9 °F 89% 29.96 in 5.0 mi Variable 3.5 mph - 0.01 in Rain Light Rain
8:12 PM 51.8 °F 48.2 °F 88% 29.96 in 2.5 mi Variable 3.5 mph - 0.03 in Rain Rain
8:32 PM 51.8 °F 48.2 °F 88% 29.96 in 4.0 mi Variable 4.6 mph - 0.06 in Rain Light Rain
8:53 PM 52.0 °F 48.9 °F 89% 29.97 in 4.0 mi Variable 4.6 mph - 0.07 in Rain Light Rain
9:22 PM 51.8 °F 48.2 °F 88% 29.96 in 2.5 mi Variable 4.6 mph - 0.04 in Rain Rain
9:35 PM 51.8 °F 48.2 °F 88% 29.96 in 4.0 mi SE 8.1 mph - 0.06 in Rain Light Rain
9:53 PM 52.0 °F 48.9 °F 89% 29.96 in 5.0 mi SE 8.1 mph - 0.06 in Rain Light Rain
10:21 PM 51.8 °F 48.2 °F 88% 29.96 in 5.0 mi Variable 5.8 mph - 0.01 in Rain Light Rain
10:46 PM 51.8 °F 48.2 °F 88% 29.96 in 8.0 mi Variable 5.8 mph - 0.01 in   Overcast
10:53 PM 51.1 °F 48.0 °F 89% 29.96 in 8.0 mi Variable 6.9 mph - 0.01 in   Overcast
11:12 PM 51.8 °F 48.2 °F 88% 29.96 in 7.0 mi Variable 6.9 mph - N/A   Overcast
11:19 PM 51.8 °F 48.2 °F 88% 29.96 in 7.0 mi Variable 5.8 mph - N/A   Overcast
11:53 PM 51.1 °F 48.0 °F 89% 29.95 in 8.0 mi SSE 8.1 mph - N/A   Overcast